DateTimeUTC,F1_A11,F1_S11,BsB_S11,BsG_S11,BsR_S11,BbsB_S11,BbsG_S11,BbsR_S11,BaB_A11,BaG_A11,BaR_A11,Tu_S11,T_S11,Uu_S11,U_S11,P_S11,T1_A11
2021-02-05T18:00:00Z,00000200,21000000,,,,,,,0000.19,0000.00,-000.06,15.7,23.3,,00.0,0642.9,30.9
2021-02-05T18:01:00Z,00000200,21000000,,,,,,,0000.07,0000.51,0000.13,15.6,23.3,,00.0,0642.9,30.9
2021-02-05T18:02:00Z,00000200,21000000,,,,,,,0000.23,0000.00,0000.40,15.6,23.3,,00.0,0642.9,30.9
2021-02-05T18:03:00Z,00000200,61000000,,,,,,,-000.05,0000.07,0000.04,15.7,23.3,,00.0,0642.9,30.9
2021-02-05T18:04:00Z,00000200,41000000,0000.51,0000.33,-000.12,0000.35,0000.12,-000.06,0000.55,0000.21,0000.22,16.1,23.2,,00.0,0643.7,30.9
2021-02-05T18:05:00Z,00000200,01000000,0000.33,0000.05,-000.18,0000.28,0000.28,0000.08,-000.04,0000.31,-000.22,16.2,23.1,,00.0,0643.8,30.9
2021-02-05T18:06:00Z,00000200,01000000,0000.28,-000.15,-000.11,-000.07,-000.07,0000.11,-000.00,0000.02,-000.10,16.3,23.2,,00.0,0643.8,30.9
2021-02-05T18:07:00Z,00000200,01000000,0000.19,-000.09,-000.19,0000.50,0000.20,0000.17,0000.12,0000.06,0000.37,16.3,23.2,,00.0,0643.8,30.9
2021-02-05T18:08:00Z,00000200,01000000,-000.11,-000.08,0000.18,0000.05,-000.04,0000.43,-000.28,0000.03,0000.10,16.3,23.2,,00.0,0643.9,30.9
2021-02-05T18:09:00Z,00000200,01000000,0000.53,0000.28,0000.13,0000.37,0000.14,-000.06,0000.10,-000.10,-000.25,16.3,23.2,,00.0,0643.9,30.9
2021-02-05T18:10:00Z,00000200,01000000,0000.46,0000.09,-000.17,-000.03,0000.27,0000.03,0000.16,-000.11,0000.22,16.2,23.1,,00.0,0643.9,30.9
2021-02-05T18:11:00Z,00000200,01000000,-000.01,0000.51,-000.13,0000.26,-000.02,0000.03,0000.03,-000.03,-000.23,16.2,23.1,,00.0,0644.0,30.9
2021-02-05T18:12:00Z,00000200,01000000,0000.63,0000.07,0000.05,0000.06,0000.03,-000.19,0000.16,0000.35,0000.26,16.1,23.1,,00.0,0644.0,30.9
2021-02-05T18:13:00Z,00000200,01000000,0000.15,0000.03,0000.08,0000.12,0000.25,0000.28,0000.28,0000.04,0000.27,16.1,23.1,,00.0,0644.0,30.9
2021-02-05T18:14:00Z,00000200,01000000,0000.08,-000.23,-000.20,-000.22,0000.04,0000.07,-000.06,0000.11,-000.13,16.0,23.0,,00.0,0644.0,30.9
2021-02-05T18:15:00Z,00000200,01000000,-000.12,-000.04,0000.29,0000.08,0000.19,0000.03,-000.04,-000.10,-000.11,16.0,23.0,,00.0,0644.0,30.9
2021-02-05T18:16:00Z,00000200,01000000,0000.97,0000.23,-000.09,0000.32,0000.10,0000.18,0000.51,0000.20,0000.52,16.0,23.0,,00.0,0644.0,30.9
2021-02-05T18:17:00Z,00000200,01000000,-000.29,-000.07,0000.15,0000.28,0000.15,0000.09,0000.48,0000.66,-000.13,16.1,23.0,,00.0,0643.9,30.9
2021-02-05T18:18:00Z,00000200,01000000,0000.63,0000.20,0000.08,-000.09,0000.18,0000.15,0000.20,0000.39,0000.39,16.2,23.0,,00.0,0644.0,30.9
2021-02-05T18:19:00Z,00000200,01000000,0000.63,0000.17,-000.29,-000.07,0000.15,0000.15,0000.10,0000.06,0000.14,16.3,23.1,,00.0,0644.0,30.9
2021-02-05T18:20:00Z,00000200,01000000,0001.06,0000.48,-000.00,-000.05,-000.08,0000.22,-000.15,-000.12,0000.06,16.3,23.1,,00.0,0644.0,30.9
2021-02-05T18:21:00Z,00000200,01000000,0000.14,0000.30,-000.05,0000.16,0000.10,0000.02,0000.33,0000.35,-000.10,16.4,23.1,,00.0,0644.0,30.9
2021-02-05T18:22:00Z,00000200,01000000,0000.67,0000.45,0000.08,0000.09,0000.12,-000.09,0000.28,0000.25,0000.25,16.4,23.1,,00.0,0644.0,30.9
2021-02-05T18:23:00Z,00000200,01000000,0000.66,0000.10,0000.18,-000.11,0000.21,0000.35,-000.05,-000.10,-000.33,16.3,23.1,,00.0,0644.1,30.9
2021-02-05T18:24:00Z,00000200,01000000,0000.73,0000.72,0000.14,0000.20,0000.25,0000.14,0000.13,0000.25,0000.50,16.3,23.1,,00.0,0644.1,30.9
2021-02-05T18:25:00Z,00000200,01000000,0000.14,0000.19,-000.02,-000.15,0000.18,0000.11,0000.12,-000.08,0000.06,16.2,23.0,,00.0,0644.1,30.9
2021-02-05T18:26:00Z,00000200,01000000,0000.58,0000.32,-000.12,0000.25,0000.32,-000.17,0000.10,0000.08,0000.12,16.2,23.0,,00.0,0644.2,30.9
2021-02-05T18:27:00Z,00000200,01000000,0000.17,-000.07,-000.09,0000.57,0000.20,0000.06,0000.01,-000.02,-000.28,16.1,23.0,,00.0,0644.2,30.9
2021-02-05T18:28:00Z,00000200,01000000,0000.07,0000.27,0000.15,-000.23,-000.07,-000.03,0000.23,0000.48,0000.46,16.1,23.0,,00.0,0644.2,30.9
2021-02-05T18:29:00Z,00000200,01000000,0000.32,0000.43,-000.16,0000.29,0000.10,0000.19,0000.17,-000.16,0000.03,16.0,23.0,,00.0,0644.2,30.9
2021-02-05T18:30:00Z,00000200,01000000,0000.52,0000.58,-000.22,0000.24,0000.03,-000.21,0000.24,0000.06,-000.07,16.0,22.9,,00.0,0644.2,30.9
2021-02-05T18:31:00Z,00000200,01000000,-000.15,0000.51,0000.12,0000.44,-000.16,0000.18,-000.07,0000.24,0000.57,16.0,22.9,,00.0,0644.2,30.9
2021-02-05T18:32:00Z,00000200,01000000,-000.31,0000.21,-000.06,0000.33,0000.31,0000.11,0000.13,0000.49,0000.02,16.1,22.9,,00.0,0644.2,30.9
2021-02-05T18:33:00Z,00000200,01000000,0000.41,0000.52,0000.33,-000.54,0000.38,0000.26,0000.46,-000.01,0000.13,16.2,23.0,,00.0,0644.3,30.9
2021-02-05T18:34:00Z,00000200,01000000,0000.04,0000.10,0000.13,-000.28,0000.20,0000.03,0000.11,0000.10,0000.09,16.2,23.0,,00.0,0644.3,30.9
2021-02-05T18:35:00Z,00000200,01000000,0000.73,-000.19,-000.04,0000.21,0000.45,-000.03,-000.14,-000.34,-000.17,16.3,23.1,,00.0,0644.3,30.9
2021-02-05T18:36:00Z,00000200,01000000,-000.34,0000.28,-000.34,-000.23,0000.10,0000.05,0000.30,0000.49,0000.08,16.4,23.1,,00.0,0644.3,30.9
2021-02-05T18:37:00Z,00000200,01000000,0000.54,0000.60,0000.05,0000.25,0000.05,-000.04,0000.20,0000.48,0000.32,16.4,23.1,,00.0,0644.3,30.9
2021-02-05T18:38:00Z,00000200,01000000,0000.63,0000.09,-000.02,-000.02,0000.22,-000.10,0000.51,0000.06,0000.15,16.3,23.1,,00.0,0644.3,30.9
2021-02-05T18:39:00Z,00000200,01000000,0000.91,0000.26,-000.08,-000.44,0000.11,0000.13,-000.15,0000.14,0000.50,16.3,23.1,,00.0,0644.3,30.9
2021-02-05T18:40:00Z,00000200,01000000,0000.57,0000.39,-000.04,-000.34,0000.06,0000.01,0000.38,0000.09,-000.05,16.2,23.1,,00.0,0644.3,30.9
2021-02-05T18:41:00Z,00000200,01000000,0000.93,0000.61,0000.07,0000.04,0000.00,-000.25,0000.18,0000.41,0000.12,16.2,23.0,,00.0,0644.3,30.9
2021-02-05T18:42:00Z,00000200,01000000,-000.31,0000.05,0000.44,0000.02,0000.05,0000.12,0000.48,0000.42,0000.15,16.1,23.0,,00.0,0644.3,30.9
2021-02-05T18:43:00Z,00000200,01000000,0000.04,0000.29,0000.27,0000.13,0000.16,0000.36,-000.06,-000.10,-000.13,16.1,23.0,,00.0,0644.4,30.9
2021-02-05T18:44:00Z,00000200,01000000,0000.57,0000.31,0000.22,-000.00,0000.23,-000.01,-000.12,0000.08,0000.08,16.0,23.0,,00.0,0644.3,30.9
2021-02-05T18:45:00Z,00000200,01000000,0001.33,0000.18,0000.14,-000.04,0000.05,0000.09,0000.80,0000.78,0000.63,16.0,22.9,,00.0,0644.3,30.9
2021-02-05T18:46:00Z,00000200,01000000,0000.18,0000.21,0000.19,-000.38,0000.14,0000.18,0000.41,-000.17,0000.13,16.0,22.9,,00.0,0644.3,30.9
2021-02-05T18:47:00Z,00000200,01000000,-000.52,-000.20,0000.04,-000.25,-000.01,-000.02,0000.36,0000.02,0000.49,16.1,22.9,,00.0,0644.3,30.9
2021-02-05T18:48:00Z,00000200,01000000,0000.07,0000.32,-000.09,-000.17,0000.29,-000.18,0000.22,0001.05,0000.12,16.2,23.0,,00.0,0644.3,30.9
2021-02-05T18:49:00Z,00000200,01000000,0000.83,0000.50,0000.15,-000.05,0000.36,0000.23,0000.38,0000.04,0000.27,16.3,23.0,,00.0,0644.2,30.9
2021-02-05T18:50:00Z,00000200,01000000,0000.25,0000.13,-000.00,0000.15,0000.07,-000.03,0000.29,0000.11,0000.37,16.3,23.1,,00.0,0644.3,30.9
2021-02-05T18:51:00Z,00000200,01000000,-000.00,0000.29,-000.01,0000.19,0000.31,0000.06,-000.38,-000.19,-000.51,16.4,23.1,,00.0,0644.3,30.9
2021-02-05T18:52:00Z,00000200,01000000,0000.42,0000.04,0000.09,0000.26,0000.12,0000.03,0000.28,0000.51,0000.19,16.4,23.1,,00.0,0644.3,30.9
2021-02-05T18:53:00Z,00000200,01000000,0000.58,0000.17,0000.07,0000.40,0000.09,0000.19,0000.12,0000.26,0000.22,16.4,23.1,,00.0,0644.3,30.9
2021-02-05T18:54:00Z,00000200,01000000,0000.55,0000.14,0000.01,0000.01,0000.18,0000.18,0000.22,-000.33,0000.06,16.3,23.1,,00.0,0644.4,30.9
2021-02-05T18:55:00Z,00000200,01000000,0000.21,0000.35,-000.07,0000.45,0000.42,0000.24,-000.15,-000.04,0000.29,16.3,23.1,,00.0,0644.4,30.9
2021-02-05T18:56:00Z,00000200,01000000,0000.44,0000.08,0000.30,0000.23,0000.26,0000.38,0000.61,0000.66,-000.21,16.2,23.0,,00.0,0644.4,30.9
2021-02-05T18:57:00Z,00000200,41000000,,,,,,,0000.16,0000.40,0000.61,16.2,23.0,,00.0,0644.3,30.9
2021-02-05T18:58:00Z,00000200,61000000,,,,,,,-000.05,-000.34,-000.25,15.8,23.1,,00.0,0643.5,30.9
2021-02-05T18:59:00Z,00000200,21000000,,,,,,,-000.39,-000.24,-000.17,15.7,23.2,,00.0,0643.5,30.8
